Torna al catalogo

HULIANWANG DIGUI-165

AttivoComunicazioniPO
NORAD 68657·PAYLOAD·🇨🇳 China

Lanciato Apr 8, 2026 da Taiyuan Satellite Launch Center

Loading…

Prossimi Passaggi (prossime 24 ore)

TLE

AggiornatoSource: Space-Track

Epoca: Sep 14, 2026, 20:53 UTC

1 68657U 26076B   26257.87045026  .00000038  00000-0  53310-4 0  9994
2 68657  86.5048  13.6258 0001262 108.9380 251.1891 13.24409815 21243

Traccia HULIANWANG DIGUI-165 in tempo reale con AllMySat

Download on the App Store